Kansas City International Airport
KMCI : now visible

Airfield :











YOU CAN JOIN US ON...

 
LOGIN :

Register | Disclaimer

   EN    FR    IT 

 









Legend :    VFR   Marginal VFR   IFR   Intensive IFR   Very Intensive IFR
Visi :
Ceiling :
>= 8 km
>= 3000ft
5 to 8 km
1000 to 3000 ft
1500m to 5 km
500 to 1000 ft
800 to 1500m
200 to 500 ft
< 800m
< 200 ft
Symbols :   Thunderstorms  Fog  Heavy snow  Heavy precipitations  Wind > 20 kt






- Airport Elevation : 1026 ft
- IATA code : MCI


KMCI - Kansas City International

CURRENT METAR :
  • 261153Z 18010KT 10SM CLR 14/08 A2994 RMK AO2 SLP134 T01440078 10144 20128 56010

EXPIRED METARs :
  • 261053Z 17010KT 10SM CLR 14/08 A2995 RMK AO2 SLP137 T01390083
  • 260953Z 18010KT 10SM CLR 13/08 A2996 RMK AO2 SLP140 T01330083

TAF KMCI
Valid from the 26 at 12:00 until the 27 at 12:00 UTC


261120Z 2612/2712 18008KT P6SM SKC WS010/21045KT
FM261500 22020G30KT P6SM SKC
FM262300 20015KT P6SM SKC
FM270400 20015KT P6SM SKC WS020/22045KT
KZKC FIR / North America



MET'MAP, your aeronautical weather chart ! - Copyright ORBIFLY December 2007 - Disclaimer

ORBIFLY MET'MAP TEAM :

Programming & Development : Alexandra Zaïnal
Concept & original design : Baudouin d'Aumeries
Assistance for programming : Marc-Olivier Méhu
Technical & hardware support : Manuel Goepfert

Contact : metmap@orbifly.com




SOURCES & CREDITS :

   NOAA       Earth
Advisory